| time (UTC) | temp F | wind direction | speed knots | gust knots | rain 1hr in | rain 24hr in | rain mn in | humidity % | barometer mb |
| 20260906123031 | 75 | 306 | 4.3 | 8.7 | 0.00 | 0.02 | 0.02 | 69 | 1023.8 |
| 20260906122054 | 75 | 328 | 5.2 | 7.8 | 0.00 | 0.02 | 0.02 | 69 | 1023.8 |
| 20260906121118 | 75 | 332 | 4.3 | 11.3 | 0.00 | 0.02 | 0.02 | 70 | 1023.8 |
| 20260906120039 | 75 | 316 | 4.3 | 7.0 | 0.00 | 0.02 | 0.02 | 69 | 1023.7 |
| 20260906115123 | 75 | 350 | 4.3 | 8.7 | 0.00 | 0.02 | 0.02 | 70 | 1023.9 |
| 20260906114023 | 75 | 308 | 4.3 | 7.8 | 0.00 | 0.02 | 0.02 | 71 | 1023.8 |
| 20260906113046 | 75 | 337 | 3.5 | 7.0 | 0.00 | 0.02 | 0.02 | 71 | 1023.7 |
| 20260906112111 | 75 | 338 | 3.5 | 6.1 | 0.00 | 0.02 | 0.02 | 70 | 1023.7 |
| 20260906111032 | 75 | 335 | 3.5 | 8.7 | 0.00 | 0.02 | 0.02 | 70 | 1023.9 |
| 20260906110055 | 75 | 310 | 3.5 | 7.0 | 0.00 | 0.02 | 0.02 | 69 | 1023.7 |
| 20260906105119 | 75 | 335 | 2.6 | 7.0 | 0.00 | 0.02 | 0.02 | 69 | 1023.6 |
| 20260906104039 | 74 | 321 | 2.6 | 7.0 | 0.00 | 0.02 | 0.02 | 70 | 1023.8 |
| 20260906103103 | 74 | 279 | 4.3 | 7.0 | 0.00 | 0.02 | 0.02 | 71 | 1023.8 |
| 20260906102023 | 73 | 325 | 3.5 | 7.8 | 0.00 | 0.02 | 0.02 | 72 | 1023.8 |
| 20260906101047 | 73 | 297 | 2.6 | 7.0 | 0.00 | 0.02 | 0.02 | 73 | 1023.8 |
| 20260906100111 | 73 | 230 | 2.6 | 5.2 | 0.00 | 0.02 | 0.02 | 73 | 1023.5 |
| 20260906095031 | 72 | 316 | 4.3 | 6.1 | 0.00 | 0.02 | 0.02 | 74 | 1023.6 |
| 20260906094055 | 71 | 192 | 3.5 | 6.1 | 0.00 | 0.02 | 0.02 | 75 | 1023.4 |
| 20260906093119 | 72 | 276 | 2.6 | 5.2 | 0.00 | 0.02 | 0.02 | 76 | 1023.4 |
| 20260906092059 | 71 | 125 | 3.5 | 6.1 | 0.00 | 0.02 | 0.02 | 78 | 1023.4 |
| 20260906091123 | 70 | 181 | 2.6 | 7.8 | 0.00 | 0.02 | 0.02 | 79 | 1023.4 |
| 20260906090023 | 69 | 199 | 3.5 | 7.0 | 0.01 | 0.02 | 0.02 | 81 | 1023.3 |
| 20260906085046 | 68 | 241 | 3.5 | 7.0 | 0.01 | 0.02 | 0.02 | 86 | 1023.4 |
| 20260906084110 | 67 | 229 | 3.5 | 7.0 | 0.01 | 0.02 | 0.02 | 92 | 1023.3 |
| 20260906083032 | 66 | 257 | 2.6 | 7.0 | 0.01 | 0.02 | 0.02 | 94 | 1023.0 |
| 20260906082055 | 66 | 102 | 1.7 | 6.1 | 0.01 | 0.02 | 0.02 | 95 | 1023.0 |
| 20260906081119 | 65 | 294 | 2.6 | 6.1 | 0.01 | 0.02 | 0.02 | 95 | 1023.1 |
| 20260906080039 | 65 | 103 | 0.9 | 2.6 | 0.00 | 0.01 | 0.01 | 95 | 1022.8 |
| 20260906075102 | 65 | 114 | 1.7 | 2.6 | 0.00 | 0.01 | 0.01 | 96 | 1022.8 |
| 20260906074103 | 64 | 118 | 1.7 | 2.6 | 0.00 | 0.01 | 0.01 | 96 | 1022.6 |
| 20260906073046 | 64 | 125 | 1.7 | 3.5 | 0.00 | 0.01 | 0.01 | 96 | 1022.5 |
| 20260906072111 | 64 | 96 | 1.7 | 2.6 | 0.00 | 0.01 | 0.01 | 96 | 1022.4 |
| 20260906071030 | 64 | 82 | 0.9 | 2.6 | 0.00 | 0.01 | 0.01 | 96 | 1022.3 |
| 20260906070055 | 64 | 108 | 1.7 | 3.5 | 0.00 | 0.01 | 0.01 | 96 | 1022.3 |
| 20260906065119 | 64 | 82 | 0.9 | 2.6 | 0.00 | 0.01 | 0.01 | 96 | 1022.0 |
| 20260906064039 | 64 | 97 | 2.6 | 3.5 | 0.00 | 0.01 | 0.01 | 95 | 1021.7 |
| 20260906063103 | 64 | 91 | 0.9 | 2.6 | 0.00 | 0.01 | 0.01 | 95 | 1021.5 |
| 20260906062023 | 64 | 118 | 1.7 | 3.5 | 0.00 | 0.01 | 0.01 | 95 | 1021.1 |
| 20260906061046 | 64 | 92 | 0.9 | 2.6 | 0.00 | 0.01 | 0.01 | 95 | 1021.0 |
| 20260906060111 | 64 | 116 | 1.7 | 2.6 | 0.00 | 0.01 | 0.01 | 95 | 1021.0 |
| 20260906055031 | 64 | 82 | 1.7 | 3.5 | 0.00 | 0.01 | 0.01 | 95 | 1020.8 |
| 20260906054055 | 64 | 88 | 0.9 | 1.7 | 0.00 | 0.01 | 0.01 | 95 | 1020.6 |
| 20260906053119 | 64 | 50 | 0.0 | 1.7 | 0.00 | 0.01 | 0.01 | 95 | 1020.5 |
| 20260906052058 | 64 | 53 | 0.0 | 0.9 | 0.00 | 0.01 | 0.01 | 95 | 1020.3 |
| 20260906051144 | 64 | 38 | 0.9 | 2.6 | 0.00 | 0.01 | 0.01 | 95 | 1020.2 |
| 20260906050023 | 64 | 24 | 0.9 | 1.7 | 0.00 | 0.01 | 0.01 | 94 | 1020.1 |
| 20260906045047 | 64 | 40 | 0.9 | 1.7 | 0.00 | 0.01 | 0.01 | 94 | 1020.0 |
| 20260906044111 | 64 | 26 | 1.7 | 5.2 | 0.00 | 0.01 | 0.01 | 94 | 1019.9 |
| 20260906043030 | 64 | 16 | 2.6 | 5.2 | 0.01 | 0.01 | 0.01 | 94 | 1019.8 |
| 20260906042055 | 64 | 30 | 2.6 | 5.2 | 0.01 | 0.01 | 0.01 | 94 | 1019.7 |
| 20260906041119 | 64 | 356 | 2.6 | 3.5 | 0.01 | 0.01 | 0.01 | 94 | 1019.7 |
| 20260906040039 | 65 | 55 | 0.0 | 0.9 | 0.01 | 0.01 | 0.01 | 93 | 1019.7 |
| 20260906035103 | 65 | 35 | 0.9 | 1.7 | 0.01 | 0.01 | 0.01 | 93 | 1019.7 |
| 20260906034022 | 65 | 5 | 1.7 | 2.6 | 0.01 | 0.01 | 0.01 | 93 | 1019.6 |
| 20260906033047 | 65 | 52 | 0.0 | 0.9 | 0.00 | 0.00 | 0.00 | 92 | 1019.8 |
| 20260906032111 | 65 | 58 | 0.0 | 0.9 | 0.00 | 0.00 | 0.00 | 92 | 1020.0 |
| 20260906031030 | 65 | 11 | 1.7 | 3.5 | 0.00 | 0.00 | 0.00 | 91 | 1020.1 |
| 20260906030054 | 66 | 57 | 0.9 | 5.2 | 0.00 | 0.00 | 0.00 | 90 | 1020.0 |
| 20260906025119 | 67 | 36 | 1.7 | 3.5 | 0.00 | 0.00 | 0.00 | 89 | 1019.9 |
| 20260906024039 | 67 | 33 | 0.9 | 2.6 | 0.00 | 0.00 | 0.00 | 88 | 1019.8 |
| 20260906023103 | 67 | 43 | 0.9 | 3.5 | 0.00 | 0.00 | 0.00 | 86 | 1020.0 |
| 20260906022022 | 68 | 43 | 1.7 | 2.6 | 0.00 | 0.00 | 0.00 | 84 | 1020.0 |
| 20260906021046 | 69 | 70 | 0.9 | 2.6 | 0.00 | 0.00 | 0.00 | 81 | 1020.2 |
| 20260906020111 | 69 | 54 | 0.9 | 1.7 | 0.00 | 0.00 | 0.00 | 79 | 1020.1 |
| 20260906015031 | 70 | 39 | 0.9 | 2.6 | 0.00 | 0.00 | 0.00 | 79 | 1020.1 |
| 20260906014054 | 70 | 43 | 0.9 | 1.7 | 0.00 | 0.00 | 0.00 | 79 | 1020.2 |
| 20260906013139 | 70 | 0.0 | 0.9 | 0.00 | 0.00 | 0.00 | 79 | 1020.2 | |
| 20260906012039 | 70 | 92 | 0.9 | 2.6 | 0.00 | 0.00 | 0.00 | 81 | 1020.3 |
| 20260906011101 | 71 | 112 | 3.5 | 5.2 | 0.00 | 0.00 | 0.00 | 80 | 1020.3 |
| 20260906010023 | 72 | 152 | 3.5 | 5.2 | 0.00 | 0.00 | 0.00 | 76 | 1020.2 |
| 20260906005047 | 72 | 127 | 2.6 | 5.2 | 0.00 | 0.00 | 0.00 | 76 | 1020.1 |
| 20260906004111 | 72 | 88 | 3.5 | 5.2 | 0.00 | 0.00 | 0.00 | 76 | 1020.1 |
| 20260906003030 | 71 | 156 | 4.3 | 6.1 | 0.00 | 0.00 | 0.00 | 81 | 1020.3 |
| 20260906002055 | 71 | 131 | 3.5 | 3.5 | 0.00 | 0.00 | 0.00 | 82 | 1020.1 |
| 20260906001127 | 71 | 132 | 3.5 | 5.2 | 0.00 | 0.00 | 0.00 | 82 | 1020.2 |
| 20260906000039 | 71 | 151 | 4.3 | 6.1 | 0.00 | 0.00 | 0.00 | 82 | 1020.2 |
| 20260905235123 | 71 | 138 | 4.3 | 7.8 | 0.00 | 0.00 | 0.00 | 83 | 1020.3 |
| 20260905234023 | 72 | 132 | 4.3 | 7.8 | 0.00 | 0.00 | 0.00 | 82 | 1020.4 |
| 20260905233047 | 72 | 126 | 2.6 | 6.1 | 0.00 | 0.00 | 0.00 | 80 | 1020.4 |
| 20260905232111 | 71 | 92 | 2.6 | 5.2 | 0.00 | 0.00 | 0.00 | 85 | 1020.4 |
| 20260905231031 | 73 | 121 | 2.6 | 5.2 | 0.00 | 0.00 | 0.00 | 83 | 1020.6 |
| 20260905230055 | 73 | 96 | 3.5 | 6.1 | 0.00 | 0.00 | 0.00 | 80 | 1020.4 |
| 20260905225018 | 72 | 91 | 3.5 | 5.2 | 0.00 | 0.00 | 0.00 | 84 | 1020.5 |
| 20260905224039 | 73 | 104 | 2.6 | 3.5 | 0.00 | 0.00 | 0.00 | 82 | 1020.4 |
| 20260905223104 | 73 | 108 | 1.7 | 2.6 | 0.00 | 0.00 | 0.00 | 81 | 1020.4 |
| 20260905222023 | 73 | 80 | 0.9 | 1.7 | 0.00 | 0.00 | 0.00 | 80 | 1020.6 |
| 20260905221046 | 73 | 55 | 0.0 | 0.9 | 0.00 | 0.00 | 0.00 | 79 | 1020.6 |
| 20260905220111 | 73 | 0.0 | 0.0 | 0.00 | 0.00 | 0.00 | 78 | 1020.7 | |
| 20260905215030 | 74 | 0.0 | 0.9 | 0.00 | 0.00 | 0.00 | 77 | 1020.6 | |
| 20260905214054 | 74 | 35 | 0.0 | 1.7 | 0.00 | 0.00 | 0.00 | 76 | 1020.7 |
| 20260905213118 | 75 | 77 | 0.0 | 0.9 | 0.00 | 0.00 | 0.00 | 75 | 1020.8 |
| 20260905212038 | 75 | 60 | 0.0 | 0.9 | 0.00 | 0.00 | 0.00 | 75 | 1020.8 |
| 20260905211102 | 76 | 28 | 0.9 | 1.7 | 0.00 | 0.00 | 0.00 | 73 | 1020.8 |
| 20260905210022 | 76 | 73 | 0.0 | 0.9 | 0.00 | 0.00 | 0.00 | 71 | 1020.9 |
| 20260905205046 | 77 | 114 | 1.7 | 3.5 | 0.00 | 0.00 | 0.00 | 68 | 1020.7 |
| 20260905204130 | 77 | 76 | 0.9 | 1.7 | 0.00 | 0.00 | 0.00 | 68 | 1020.7 |
| 20260905203031 | 77 | 88 | 0.9 | 2.6 | 0.00 | 0.00 | 0.00 | 68 | 1020.8 |
| 20260905202054 | 77 | 113 | 2.6 | 2.6 | 0.00 | 0.00 | 0.00 | 66 | 1020.7 |
| 20260905201119 | 76 | 60 | 0.0 | 0.9 | 0.00 | 0.00 | 0.00 | 71 | 1020.6 |
| 20260905200038 | 75 | 84 | 1.7 | 2.6 | 0.00 | 0.00 | 0.00 | 73 | 1020.5 |
| 20260905195102 | 75 | 101 | 1.7 | 2.6 | 0.00 | 0.00 | 0.00 | 74 | 1020.5 |
| 20260905194022 | 76 | 113 | 1.7 | 3.5 | 0.00 | 0.00 | 0.00 | 72 | 1020.6 |
| 20260905193046 | 75 | 59 | 0.9 | 1.7 | 0.00 | 0.00 | 0.00 | 72 | 1020.4 |
| 20260905192110 | 75 | 55 | 0.0 | 0.9 | 0.00 | 0.00 | 0.00 | 75 | 1020.2 |
| 20260905191030 | 75 | 49 | 0.9 | 0.9 | 0.00 | 0.00 | 0.00 | 74 | 1019.7 |
| 20260905190054 | 75 | 95 | 0.9 | 1.7 | 0.00 | 0.00 | 0.00 | 74 | 1019.8 |
| 20260905185119 | 74 | 48 | 0.9 | 1.7 | 0.00 | 0.00 | 0.00 | 77 | 1019.5 |
| 20260905184057 | 73 | 19 | 0.9 | 2.6 | 0.00 | 0.00 | 0.00 | 78 | 1019.3 |
| 20260905183103 | 74 | 42 | 2.6 | 3.5 | 0.00 | 0.00 | 0.00 | 76 | 1019.2 |
| 20260905182023 | 76 | 28 | 1.7 | 5.2 | 0.00 | 0.00 | 0.00 | 72 | 1019.3 |
| 20260905181046 | 77 | 41 | 0.9 | 5.2 | 0.00 | 0.00 | 0.00 | 70 | 1019.4 |
| 20260905180111 | 77 | 61 | 2.6 | 7.8 | 0.00 | 0.00 | 0.00 | 70 | 1019.0 |
| 20260905175030 | 79 | 44 | 2.6 | 5.2 | 0.00 | 0.00 | 0.00 | 62 | 1018.8 |
| 20260905174054 | 81 | 20 | 1.7 | 5.2 | 0.00 | 0.00 | 0.00 | 58 | 1018.9 |
| 20260905173119 | 83 | 336 | 2.6 | 7.8 | 0.00 | 0.00 | 0.00 | 53 | 1018.6 |
| 20260905172059 | 85 | 40 | 0.9 | 5.2 | 0.00 | 0.00 | 0.00 | 49 | 1018.5 |
| 20260905171122 | 84 | 288 | 4.3 | 12.2 | 0.00 | 0.00 | 0.00 | 52 | 1018.5 |
| 20260905170043 | 83 | 280 | 4.3 | 9.6 | 0.00 | 0.00 | 0.00 | 55 | 1018.5 |
| 20260905165047 | 82 | 260 | 4.3 | 9.6 | 0.00 | 0.00 | 0.00 | 60 | 1018.5 |
| 20260905164110 | 83 | 282 | 5.2 | 11.3 | 0.00 | 0.00 | 0.00 | 59 | 1018.5 |
| 20260905163031 | 83 | 19 | 1.7 | 6.1 | 0.00 | 0.00 | 0.00 | 61 | 1018.3 |
| 20260905162055 | 85 | 48 | 1.7 | 3.5 | 0.00 | 0.00 | 0.00 | 59 | 1018.1 |
| 20260905161118 | 83 | 5 | 2.6 | 5.2 | 0.00 | 0.00 | 0.00 | 60 | 1018.0 |
| 20260905160100 | 83 | 43 | 1.7 | 3.5 | 0.00 | 0.00 | 0.00 | 60 | 1018.1 |
| 20260905155102 | 84 | 23 | 2.6 | 6.1 | 0.00 | 0.00 | 0.00 | 58 | 1018.1 |
| 20260905154022 | 84 | 57 | 2.6 | 5.2 | 0.00 | 0.00 | 0.00 | 58 | 1018.2 |
| 20260905153047 | 86 | 32 | 2.6 | 3.5 | 0.00 | 0.00 | 0.00 | 57 | 1018.3 |
| 20260905152111 | 86 | 59 | 2.6 | 5.2 | 0.00 | 0.00 | 0.00 | 56 | 1018.2 |
| 20260905151031 | 85 | 43 | 1.7 | 5.2 | 0.00 | 0.00 | 0.00 | 57 | 1018.4 |
| 20260905150054 | 84 | 11 | 2.6 | 5.2 | 0.00 | 0.00 | 0.00 | 58 | 1018.3 |
| 20260905145119 | 86 | 36 | 2.6 | 6.1 | 0.00 | 0.00 | 0.00 | 55 | 1018.4 |
| 20260905144038 | 85 | 40 | 2.6 | 5.2 | 0.00 | 0.00 | 0.00 | 57 | 1018.2 |
| 20260905143102 | 85 | 4 | 2.6 | 6.1 | 0.00 | 0.00 | 0.00 | 56 | 1018.6 |
| 20260905142042 | 86 | 42 | 2.6 | 5.2 | 0.00 | 0.00 | 0.00 | 56 | 1018.5 |
| 20260905141046 | 84 | 22 | 2.6 | 5.2 | 0.00 | 0.00 | 0.00 | 57 | 1018.7 |
| 20260905140130 | 85 | 64 | 2.6 | 3.5 | 0.00 | 0.00 | 0.00 | 55 | 1018.7 |
| 20260905135030 | 84 | 359 | 1.7 | 5.2 | 0.00 | 0.00 | 0.00 | 55 | 1018.8 |
| 20260905134055 | 84 | 43 | 1.7 | 3.5 | 0.00 | 0.00 | 0.00 | 57 | 1019.0 |
| 20260905133118 | 83 | 19 | 2.6 | 6.1 | 0.00 | 0.00 | 0.00 | 59 | 1019.0 |
| 20260905132038 | 82 | 27 | 2.6 | 6.1 | 0.00 | 0.00 | 0.00 | 60 | 1018.9 |
| 20260905131122 | 82 | 22 | 2.6 | 3.5 | 0.00 | 0.00 | 0.00 | 58 | 1019.3 |
| 20260905130022 | 83 | 27 | 2.6 | 5.2 | 0.00 | 0.00 | 0.00 | 58 | 1019.1 |
| 20260905125046 | 83 | 18 | 2.6 | 5.2 | 0.00 | 0.00 | 0.00 | 55 | 1019.2 |
| 20260905124110 | 85 | 21 | 2.6 | 3.5 | 0.00 | 0.00 | 0.00 | 53 | 1019.4 |